Location: Bennemühlen
(52.5740°N, 9.7135°E)
Time: 21:16:54
(UTC+00:00)

ARIANE 5 R/B - Pass Details

Date: 19 May 2025
Orbit: 614 x 648 km, 98.0° (Epoch: 12 June)

Event Time Altitude Azimuth Distance (km) Brightness Sun altitude
Exits shadow 23:01:17 23° 224° (SW) 1,339 3.9 -17.4°
Maximum altitude 23:03:03 31° 265° (W) 1,102 3.8 -17.4°
Drops below altitude 10° 23:06:56 10° 328° (NNW) 2,005 6.1 -17.4°
Sets 23:09:22 0° 339° (NNW) 2,923 7.4 -17.4°
